Location: Mascot Post Office (historical)
(40.2645°N, 99.5462°W)
Time: 10:24:54
(UTC+00:00)

NOSS 3-4 (C) - Pass Details

Date: 27 October 2020
Orbit: 886 x 1326 km, 63.4° (Epoch: 06 November)

Event Time Altitude Azimuth Distance (km) Brightness Sun altitude
Rises 03:18:37 0° 324° (NW) 3,871 7.3 -41.5°
Reaches altitude 10° 03:21:09 10° 324° (NW) 2,973 6.5 -41.9°
Enters shadow 03:24:38 33° 321° (NW) 1,836 5.1 -42.6°
